Change the Weather History Date:

Monday, April 22, 2013

  Actual Average Record
Temperature  
Mean Temperature 58 °F 53 °F  
Max Temperature 68 °F 64 °F 84 °F (1960)
Min Temperature 48 °F 41 °F 33 °F (1984)
Degree Days  
Heating Degree Days 7 13  
Month to date heating degree days 438 357  
Since 1 July heating degree days 6292 6215  
Cooling Degree Days 0 0  
Month to date cooling degree days 0 0  
Year to date cooling degree days 0 0  
Growing Degree Days 7 (Base 50)    
Moisture  
Dew Point 38 °F    
Average Humidity 62    
Maximum Humidity 89    
Minimum Humidity 34    
Precipitation  
Precipitation 0.02 in 0.12 in 1.95 in (1973)
Month to date precipitation 6.38 2.33  
Year to date precipitation 12.08 7.38  
Snow  
Snow 0.00 in - - ()
Month to date snowfall T  
Since 1 July snowfall 27.1  
Snow Depth 0.00 in    
Sea Level Pressure  
Sea Level Pressure 30.12 in    
Wind  
Wind Speed 13 mph (South)    
Max Wind Speed 23 mph    
Max Gust Speed 28 mph    
Visibility 10 miles    
Events Rain    
T = Trace of Precipitation, MM = Missing Value Source: NWS Daily Summary

Daily Weather History Graph

Daily Weather History Graph

Search for Another Location

Airport or City:

Trip Planner

Search our weather history database for the weather conditions in past years. The results will help you decide how hot, cold, wet, or windy it might be!

Date:

Astronomy

Apr. 22, 2013 Rise Set
Actual Time 6:11 AM CDT 7:50 PM CDT
Civil Twilight 5:42 AM CDT 8:20 PM CDT
Nautical Twilight 5:06 AM CDT 8:56 PM CDT
Astronomical Twilight 4:28 AM CDT 9:34 PM CDT
Moon 4:37 PM CDT (4/22) 4:08 AM CDT (4/22)
Length of Visible Light 14h 38m
Length of Day
13h 39m
Waxing Gibbous, 88% of the Moon is Illuminated
Apr 22
Waxing Gibbous
Apr 25
Full
May 2
Last Quarter
May 9
New
May 17
First Quarter

Hourly Weather History & Observations

Time (CDT) Temp. Dew Point Humidity Pressure Visibility Wind Dir Wind Speed Gust Speed Precip Events Conditions
12:52 AM 48.9 °F 37.9 °F 66% 30.25 in 10.0 mi SSE 17.3 mph - N/A   Overcast
1:52 AM 48.9 °F 37.0 °F 64% 30.23 in 10.0 mi SSE 16.1 mph - N/A   Overcast
2:52 AM 48.9 °F 36.0 °F 61% 30.23 in 10.0 mi South 16.1 mph - N/A   Overcast
3:52 AM 48.9 °F 35.1 °F 59% 30.22 in 10.0 mi South 13.8 mph - N/A   Overcast
4:52 AM 48.0 °F 35.1 °F 61% 30.20 in 10.0 mi SSE 11.5 mph - N/A   Mostly Cloudy
5:52 AM 48.0 °F 34.0 °F 58% 30.20 in 10.0 mi South 12.7 mph - N/A   Overcast
7:52 AM 50.0 °F 35.1 °F 57% 30.21 in 10.0 mi South 11.5 mph - N/A   Overcast
8:52 AM 51.1 °F 36.0 °F 56% 30.20 in 10.0 mi South 12.7 mph - N/A   Scattered Clouds
9:52 AM 57.9 °F 39.0 °F 49% 30.19 in 10.0 mi South 18.4 mph - N/A   Mostly Cloudy
10:52 AM 61.0 °F 37.0 °F 41% 30.19 in 10.0 mi South 17.3 mph - N/A   Partly Cloudy
11:52 AM 63.0 °F 37.9 °F 40% 30.17 in 10.0 mi South 13.8 mph - N/A   Clear
12:52 PM 64.9 °F 39.9 °F 40% 30.14 in 10.0 mi South 13.8 mph 20.7 mph N/A   Clear
1:52 PM 66.9 °F 39.0 °F 36% 30.10 in 10.0 mi South 12.7 mph 20.7 mph N/A   Clear
2:52 PM 66.9 °F 37.9 °F 34% 30.07 in 10.0 mi SSE 16.1 mph 25.3 mph N/A   Clear
3:52 PM 66.9 °F 37.9 °F 34% 30.04 in 10.0 mi SSE 13.8 mph 27.6 mph N/A   Clear
4:52 PM 66.9 °F 37.9 °F 34% 30.02 in 10.0 mi SSE 19.6 mph - N/A   Clear
5:52 PM 64.9 °F 37.9 °F 37% 30.01 in 10.0 mi SSE 16.1 mph 24.2 mph N/A   Partly Cloudy
6:52 PM 64.0 °F 37.0 °F 37% 29.99 in 10.0 mi SSE 11.5 mph 20.7 mph N/A   Mostly Cloudy
7:52 PM 61.0 °F 37.9 °F 42% 30.00 in 10.0 mi SSE 12.7 mph - N/A   Partly Cloudy
8:52 PM 59.0 °F 39.9 °F 49% 30.01 in 10.0 mi SSE 9.2 mph - N/A   Mostly Cloudy
9:52 PM 57.9 °F 41.0 °F 53% 30.02 in 10.0 mi South 9.2 mph - N/A   Overcast
10:52 PM 57.9 °F 43.0 °F 58% 30.05 in 10.0 mi WSW 17.3 mph 21.9 mph 0.00 in Rain Light Rain
11:52 PM 52.0 °F 48.0 °F 86% 30.04 in 9.0 mi SSW 5.8 mph - 0.02 in Rain Light Rain